Schladming, Austria 16 day weather forecast

Slopes altitude range 740 m - 2015m

Number of lifts: 47 Pistes: 100km

In some cases the lift and piste totals shown are for the ski domain (e.g. Three Valleys) rather than individual resort (e.g. Courchevel)

Overview

The 16 day weather forecast is fully updated 4 times every day.

    • Thu 21 FEB 2019
    • Thu 21
    • -2C 1C
    • Fri 22 FEB 2019
    • Fri 22
    • -1C 0C
    • Sat 23 FEB 2019
    • Sat 23
    • -11C -2C
    • Sun 24 FEB 2019
    • Sun 24
    • -8C 0C
    • Mon 25 FEB 2019
    • Mon 25
    • -5C 1C
    • Tue 26 FEB 2019
    • Tue 26
    • -4C 2C
    • Wed 27 FEB 2019
    • Wed 27
    • -1C 3C
    • Thu 28 FEB 2019
    • Thu 28
    • -1C 5C
    • Fri 01 MAR 2019
    • Fri 01
    • 5C 13C
    • Sat 02 MAR 2019
    • Sat 02
    • 4C 13C
    • Sun 03 MAR 2019
    • Sun 03
    • 3C 7C
    • Mon 04 MAR 2019
    • Mon 04
    • 3C 15C
    • Tue 05 MAR 2019
    • Tue 05
    • 5C 9C
    • Wed 06 MAR 2019
    • Wed 06
    • 4C 8C
    • Thu 07 MAR 2019
    • Thu 07
    • 0C 3C
    • Fri 08 MAR 2019
    • Fri 08
    • -3C 1C

Date:

Time Type 0°C level Temp Chill Snow Cloud Speed Gust Dir Press
18:00 1153m 1°C 1_3 0cm 99% 3mph 4mph 1028mB
21:00 1271m -2°C -2_4 1cm 96% 4mph 4mph 1029mB
0:00 1324m -2°C -2_4 1cm 97% 4mph 6mph 1029mB
3:00 1286m -1°C -1_4 5cm 100% 4mph 7mph 1028mB
6:00 1226m -1°C -1_4 6cm 100% 4mph 6mph 1028mB
9:00 1305m -1°C -1_4 9cm 100% 4mph 8mph 1029mB
12:00 1390m 0°C 0_5 7cm 100% 5mph 8mph 1030mB
15:00 1411m 0°C 0_4 4cm 100% 4mph 8mph 1031mB
18:00 1391m 0°C 0_5 3cm 100% 5mph 8mph 1034mB
21:00 1160m -2°C -2_4 1cm 99% 4mph 6mph 1037mB
0:00 796m -4°C -4_1 1cm 99% 1mph 2mph 1039mB
3:00 273m -7°C -7_2 0cm 99% 2mph 2mph 1039mB
6:00 0m -11°C -11_3 0cm 94% 3mph 3mph 1040mB
9:00 860m -11°C -11_2 0cm 0% 2mph 3mph 1039mB
12:00 1055m -2°C -2_2 0cm 0% 2mph 3mph 1037mB
15:00 1017m -2°C -2_2 0cm 8% 2mph 3mph 1036mB
18:00 49m -2°C -2_4 0cm 4% 4mph 4mph 1039mB
21:00 0m -10°C -10_5 0cm 17% 5mph 6mph 1040mB
0:00 2m -10°C -10_5 0cm 9% 5mph 6mph 1039mB
3:00 12m -10°C -10_4 0cm 0% 4mph 5mph 1039mB
6:00 106m -10°C -10_4 0cm 0% 4mph 5mph 1039mB
9:00 1278m -8°C -8_2 0cm 0% 2mph 2mph 1038mB
12:00 1360m 0°C 0_2 0cm 0% 2mph 2mph 1036mB
15:00 1372m 0°C 0_2 0cm 0% 2mph 3mph 1036mB
18:00 495m 0°C 0_2 0cm 0% 2mph 2mph 1038mB
21:00 445m -6°C -6_3 0cm 0% 3mph 4mph 1039mB
0:00 457m -6°C -6_3 0cm 0% 3mph 4mph 1040mB
3:00 540m -6°C -6_4 0cm 3% 4mph 5mph 1040mB
6:00 637m -6°C -6_4 0cm 2% 4mph 5mph 1041mB
9:00 1951m -5°C -5_2 0cm 0% 2mph 3mph 1040mB
12:00 2253m 1°C 1_3 0cm 48% 3mph 4mph 1037mB
15:00 2379m 1°C 1_3 0cm 100% 3mph 4mph 1036mB
18:00 1222m 1°C 1_4 0cm 99% 4mph 5mph 1038mB
21:00 1002m -3°C -3_4 0cm 93% 4mph 5mph 1038mB
0:00 936m -3°C -3_4 0cm 77% 4mph 5mph 1037mB
3:00 828m -4°C -4_4 0cm 6% 4mph 4mph 1036mB
6:00 795m -4°C -4_4 0cm 21% 4mph 5mph 1035mB
9:00 2532m -4°C -4_2 0cm 77% 2mph 2mph 1034mB
12:00 2656m 2°C 2_2 0cm 84% 2mph 3mph 1032mB
15:00 2634m 2°C 2_2 0cm 97% 2mph 3mph 1030mB
18:00 1062m 2°C 2_3 0cm 91% 3mph 4mph 1032mB
21:00 974m -3°C -3_4 0cm 38% 4mph 4mph 1032mB
0:00 938m -3°C -3_4 0cm 27% 4mph 4mph 1031mB
3:00 994m -3°C -3_3 0cm 54% 3mph 4mph 1030mB
6:00 1226m -3°C -3_3 0cm 74% 3mph 4mph 1030mB
9:00 2519m -1°C -1_2 0cm 87% 2mph 2mph 1029mB
12:00 2797m 3°C 3_2 0cm 76% 2mph 2mph 1027mB
15:00 3123m 3°C 3_4 0cm 97% 4mph 5mph 1025mB
18:00 1358m 3°C 3_6 0cm 99% 6mph 6mph 1027mB
21:00 1311m -1°C -1_6 0cm 31% 6mph 7mph 1026mB
0:00 1354m -1°C -1_6 0cm 16% 6mph 7mph 1025mB
3:00 1337m -1°C -1_5 0cm 0% 5mph 5mph 1024mB
6:00 1277m -1°C -1_4 0cm 18% 4mph 5mph 1024mB
9:00 2923m -1°C -1_3 0cm 44% 3mph 4mph 1022mB
12:00 2765m 5°C 5_3 0cm 22% 3mph 3mph 1020mB
15:00 2573m 5°C 5_3 0cm 0% 3mph 4mph 1019mB
18:00 2192m 5°C 5_3 0cm 0% 3mph 4mph 1022mB
21:00 1188m -1°C -1_3 0cm 27% 3mph 4mph 1024mB
0:00 1090m -2°C -2_3 0cm 33% 3mph 4mph 1024mB
3:00 1792m 6°C 6_8 0cm 13% 8mph 17mph 1024mB
6:00 1680m 5°C 5_7 0cm 20% 7mph 10mph 1025mB
9:00 1712m 5°C 5_8 0cm 12% 8mph 13mph 1024mB
12:00 2103m 13°C 13_7 0cm 33% 7mph 11mph 1022mB
15:00 2152m 13°C 13_6 0cm 48% 6mph 10mph 1021mB
18:00 2129m 13°C 13_2 0cm 46% 2mph 3mph 1023mB
21:00 1938m 7°C 7_6 0cm 27% 6mph 7mph 1024mB
0:00 1814m 6°C 6_6 0cm 27% 6mph 7mph 1024mB
3:00 2015m 5°C 5_6 0cm 43% 6mph 7mph 1022mB
6:00 1893m 4°C 4_3 0cm 43% 3mph 4mph 1022mB
9:00 2141m 4°C 4_1 0cm 54% 1mph 2mph 1020mB
12:00 2291m 13°C 13_4 0cm 53% 4mph 6mph 1016mB
15:00 2157m 14°C 14_5 0cm 93% 5mph 9mph 1013mB
18:00 2286m 14°C 14_7 0cm 71% 7mph 8mph 1013mB
21:00 2309m 8°C 8_8 0cm 75% 8mph 9mph 1011mB
0:00 1810m 7°C 7_8 0cm 58% 8mph 12mph 1011mB
3:00 950m 4°C 4_17 0cm 100% 17mph 33mph 1015mB
6:00 1033m 3°C 3_13 0cm 83% 13mph 31mph 1016mB
9:00 1054m 3°C 3_24 0cm 13% 24mph 41mph 1017mB
12:00 1153m 7°C 7_25 0cm 55% 25mph 44mph 1017mB
Morning 0.078125mm 0.8125 1300m 4°C 4_7 0cm 85% 7mph 20mph 1022mB
Afternoon 0.00520833mm 0 2542m 15°C 15_6 0cm 54% 6mph 11mph 1013mB
Morning 0.00520833mm 0 1994m 6°C 6_6 0cm 77% 6mph 11mph 1010mB
Afternoon 0.276042mm 0.125 1444m 9°C 9_6 0cm 80% 6mph 10mph 1009mB
Morning 0.223958mm 0 1933m 4°C 4_7 0cm 82% 7mph 11mph 1005mB
Afternoon 0.4375mm 0.5 1328m 8°C 8_21 0cm 78% 21mph 41mph 1005mB
Morning 0.0520833mm 0.4375 817m 2°C 2_10 4cm 68% 10mph 29mph 1014mB
Afternoon 0.03125mm 0.3125 764m 3°C 3_13 2cm 43% 13mph 22mph 1019mB
Morning 0.078125mm 0.875 266m -2°C -2_10 7cm 45% 10mph 21mph 1027mB
Afternoon 0.395833mm 4 596m 1°C 1_10 32cm 86% 10mph 16mph 1030mB
Morning 0.135417mm 1.5 0m -5°C -5_5 12cm 53% 5mph 6mph 1038mB
Afternoon 0mm 0 1011m 6°C 6_3 0cm 5% 3mph 6mph 1030mB

16 day outlook at a glance

Forecast issued: 21/02/2019 17:49:06

Chat

Your comments and questions. In a resort? Let us know what it's like!


Characters left 250

For terms and conditions see Readers Comments on the Cookie and privacy policy page.